Time,TemperatureF,DewpointF,PressureIn,WindDirection,WindDirectionDegrees,WindSpeedMPH,WindSpeedGustMPH,Humidity,HourlyPrecipIn,Conditions,Clouds,dailyrainin,SoftwareType,DateUTC
2013-02-04 00:02:00,10.0,3.0,29.98,North,-999,-999.0,-999.0,72,-99.99,,,-99.99,,2013-02-04 06:02:00,
2013-02-04 00:11:00,10.0,3.0,29.98,North,-999,-999.0,-999.0,72,-99.99,,,-99.99,,2013-02-04 06:11:00,
2013-02-04 00:21:00,10.0,3.0,29.98,North,-999,-999.0,-999.0,72,-99.99,,,-99.99,,2013-02-04 06:21:00,
2013-02-04 00:32:00,9.0,1.0,29.99,North,-999,-999.0,-999.0,71,-99.99,,,-99.99,,2013-02-04 06:32:00,
2013-02-04 00:42:00,9.0,1.0,29.99,North,-999,-999.0,-999.0,71,-99.99,,,-99.99,,2013-02-04 06:42:00,
2013-02-04 00:51:00,7.0,1.0,29.99,North,-999,-999.0,-999.0,78,-99.99,,,-99.99,,2013-02-04 06:51:00,
2013-02-04 01:02:00,7.0,1.0,29.99,North,-999,-999.0,-999.0,78,-99.99,,,-99.99,,2013-02-04 07:02:00,
2013-02-04 01:11:00,7.0,1.0,30.00,North,-999,-999.0,-999.0,78,-99.99,,,-99.99,,2013-02-04 07:11:00,
2013-02-04 01:21:00,7.0,1.0,30.00,North,-999,-999.0,-999.0,78,-99.99,,,-99.99,,2013-02-04 07:21:00,
2013-02-04 01:32:00,7.0,0.0,29.99,North,-999,-999.0,-999.0,71,-99.99,,,-99.99,,2013-02-04 07:32:00,
2013-02-04 01:42:00,7.0,0.0,29.99,North,-999,-999.0,-999.0,71,-99.99,,,-99.99,,2013-02-04 07:42:00,
2013-02-04 01:51:00,7.0,0.0,30.00,North,-999,-999.0,-999.0,71,-99.99,,,-99.99,,2013-02-04 07:51:00,
2013-02-04 02:01:00,7.0,0.0,30.00,North,-999,-999.0,-999.0,71,-99.99,,,-99.99,,2013-02-04 08:01:00,
2013-02-04 02:11:00,5.0,-2.0,30.00,North,-999,-999.0,-999.0,71,-99.99,,,-99.99,,2013-02-04 08:11:00,
2013-02-04 02:21:00,5.0,-2.0,30.00,North,-999,-999.0,-999.0,71,-99.99,,,-99.99,,2013-02-04 08:21:00,
2013-02-04 02:31:00,5.0,-2.0,30.00,North,-999,-999.0,-999.0,71,-99.99,,,-99.99,,2013-02-04 08:31:00,
2013-02-04 02:42:00,5.0,-2.0,30.00,North,-999,-999.0,-999.0,71,-99.99,,,-99.99,,2013-02-04 08:42:00,
2013-02-04 02:52:00,5.0,-2.0,30.01,North,-999,-999.0,-999.0,71,-99.99,,,-99.99,,2013-02-04 08:52:00,
2013-02-04 03:02:00,5.0,-2.0,30.01,North,-999,-999.0,-999.0,71,-99.99,,,-99.99,,2013-02-04 09:02:00,
2013-02-04 03:11:00,5.0,-2.0,30.02,North,-999,-999.0,-999.0,71,-99.99,,,-99.99,,2013-02-04 09:11:00,
2013-02-04 03:21:00,5.0,-2.0,30.02,North,-999,-999.0,-999.0,71,-99.99,,,-99.99,,2013-02-04 09:21:00,
2013-02-04 03:31:00,5.0,-2.0,30.02,North,-999,-999.0,-999.0,71,-99.99,,,-99.99,,2013-02-04 09:31:00,
2013-02-04 03:41:00,5.0,-2.0,30.02,North,-999,-999.0,-999.0,71,-99.99,,,-99.99,,2013-02-04 09:41:00,
2013-02-04 03:51:00,5.0,-2.0,30.02,North,-999,-999.0,-999.0,71,-99.99,,,-99.99,,2013-02-04 09:51:00,
2013-02-04 04:01:00,5.0,-2.0,30.02,North,-999,-999.0,-999.0,71,-99.99,,,-99.99,,2013-02-04 10:01:00,
2013-02-04 04:11:00,5.0,-2.0,30.02,North,-999,-999.0,-999.0,71,-99.99,,,-99.99,,2013-02-04 10:11:00,
2013-02-04 04:21:00,3.0,-2.0,30.02,North,-999,-999.0,-999.0,77,-99.99,,,-99.99,,2013-02-04 10:21:00,
2013-02-04 04:32:00,3.0,-4.0,30.02,North,-999,-999.0,-999.0,71,-99.99,,,-99.99,,2013-02-04 10:32:00,
2013-02-04 04:41:00,3.0,-4.0,30.02,North,-999,-999.0,-999.0,71,-99.99,,,-99.99,,2013-02-04 10:41:00,
2013-02-04 04:51:00,3.0,-6.0,30.03,North,-999,-999.0,-999.0,65,-99.99,,,-99.99,,2013-02-04 10:51:00,
2013-02-04 05:02:00,3.0,-6.0,30.03,North,-999,-999.0,-999.0,65,-99.99,,,-99.99,,2013-02-04 11:02:00,
2013-02-04 05:11:00,1.0,-6.0,30.04,North,-999,-999.0,-999.0,71,-99.99,,,-99.99,,2013-02-04 11:11:00,
2013-02-04 05:22:00,1.0,-6.0,30.04,North,-999,-999.0,-999.0,71,-99.99,,,-99.99,,2013-02-04 11:22:00,
2013-02-04 05:32:00,1.0,-8.0,30.03,North,-999,-999.0,-999.0,65,-99.99,,,-99.99,,2013-02-04 11:32:00,
2013-02-04 05:42:00,1.0,-8.0,30.03,North,-999,-999.0,-999.0,65,-99.99,,,-99.99,,2013-02-04 11:42:00,
2013-02-04 05:52:00,0.0,-8.0,30.04,North,-999,-999.0,-999.0,70,-99.99,,,-99.99,,2013-02-04 11:52:00,
2013-02-04 06:02:00,0.0,-8.0,30.04,North,-999,-999.0,-999.0,70,-99.99,,,-99.99,,2013-02-04 12:02:00,
2013-02-04 06:12:00,0.0,-9.0,30.03,North,-999,-999.0,-999.0,64,-99.99,,,-99.99,,2013-02-04 12:12:00,
2013-02-04 06:22:00,0.0,-9.0,30.03,North,-999,-999.0,-999.0,64,-99.99,,,-99.99,,2013-02-04 12:22:00,
2013-02-04 06:32:00,-2.0,-9.0,30.04,North,-999,-999.0,-999.0,70,-99.99,,,-99.99,,2013-02-04 12:32:00,
2013-02-04 06:42:00,-2.0,-9.0,30.04,North,-999,-999.0,-999.0,70,-99.99,,,-99.99,,2013-02-04 12:42:00,
2013-02-04 06:52:00,-2.0,-9.0,30.05,North,-999,-999.0,-999.0,70,-99.99,,,-99.99,,2013-02-04 12:52:00,
2013-02-04 07:02:00,-2.0,-9.0,30.05,North,-999,-999.0,-999.0,70,-99.99,,,-99.99,,2013-02-04 13:02:00,
2013-02-04 07:12:00,-2.0,-9.0,30.04,North,-999,-999.0,-999.0,70,-99.99,,,-99.99,,2013-02-04 13:12:00,
2013-02-04 07:21:00,-2.0,-9.0,30.04,North,-999,-999.0,-999.0,70,-99.99,,,-99.99,,2013-02-04 13:21:00,
2013-02-04 07:33:00,-2.0,-11.0,30.03,North,-999,-999.0,-999.0,64,-99.99,,,-99.99,,2013-02-04 13:33:00,
2013-02-04 07:42:00,-2.0,-11.0,30.03,North,-999,-999.0,-999.0,64,-99.99,,,-99.99,,2013-02-04 13:42:00,
2013-02-04 07:51:00,-4.0,-11.0,30.04,North,-999,-999.0,-999.0,70,-99.99,,,-99.99,,2013-02-04 13:51:00,
2013-02-04 08:03:00,-4.0,-11.0,30.04,North,-999,-999.0,-999.0,70,-99.99,,,-99.99,,2013-02-04 14:03:00,
2013-02-04 08:11:00,-2.0,-11.0,30.05,North,-999,-999.0,-999.0,64,-99.99,,,-99.99,,2013-02-04 14:11:00,
2013-02-04 08:22:00,-2.0,-11.0,30.05,North,-999,-999.0,-999.0,64,-99.99,,,-99.99,,2013-02-04 14:22:00,
2013-02-04 08:32:00,-2.0,-11.0,30.05,North,-999,-999.0,-999.0,64,-99.99,,,-99.99,,2013-02-04 14:32:00,
2013-02-04 08:42:00,-2.0,-11.0,30.05,North,-999,-999.0,-999.0,64,-99.99,,,-99.99,,2013-02-04 14:42:00,
2013-02-04 08:52:00,0.0,-8.0,30.05,North,-999,-999.0,-999.0,70,-99.99,,,-99.99,,2013-02-04 14:52:00,
2013-02-04 09:03:00,0.0,-8.0,30.05,North,-999,-999.0,-999.0,70,-99.99,,,-99.99,,2013-02-04 15:03:00,
2013-02-04 09:12:00,0.0,-8.0,30.05,North,-999,-999.0,-999.0,70,-99.99,,,-99.99,,2013-02-04 15:12:00,
2013-02-04 09:23:00,0.0,-8.0,30.05,North,-999,-999.0,-999.0,70,-99.99,,,-99.99,,2013-02-04 15:23:00,
2013-02-04 09:33:00,1.0,-8.0,30.05,North,-999,-999.0,-999.0,65,-99.99,,,-99.99,,2013-02-04 15:33:00,
2013-02-04 09:43:00,1.0,-8.0,30.05,North,-999,-999.0,-999.0,65,-99.99,,,-99.99,,2013-02-04 15:43:00,
2013-02-04 09:52:00,1.0,-6.0,30.04,North,-999,-999.0,-999.0,71,-99.99,,,-99.99,,2013-02-04 15:52:00,
2013-02-04 10:03:00,1.0,-6.0,30.04,North,-999,-999.0,-999.0,71,-99.99,,,-99.99,,2013-02-04 16:03:00,
2013-02-04 10:11:00,3.0,-6.0,30.03,North,-999,-999.0,-999.0,65,-99.99,,,-99.99,,2013-02-04 16:11:00,
2013-02-04 10:22:00,3.0,-6.0,30.03,North,-999,-999.0,-999.0,65,-99.99,,,-99.99,,2013-02-04 16:22:00,
2013-02-04 10:33:00,3.0,-6.0,30.03,North,-999,-999.0,-999.0,65,-99.99,,,-99.99,,2013-02-04 16:33:00,
2013-02-04 10:42:00,3.0,-6.0,30.03,North,-999,-999.0,-999.0,65,-99.99,,,-99.99,,2013-02-04 16:42:00,
2013-02-04 10:51:00,3.0,-6.0,30.02,North,-999,-999.0,-999.0,65,-99.99,,,-99.99,,2013-02-04 16:51:00,
2013-02-04 11:02:00,3.0,-6.0,30.02,North,-999,-999.0,-999.0,65,-99.99,,,-99.99,,2013-02-04 17:02:00,
2013-02-04 11:11:00,7.0,-4.0,30.02,North,-999,-999.0,-999.0,60,-99.99,,,-99.99,,2013-02-04 17:11:00,
2013-02-04 11:21:00,7.0,-4.0,30.02,North,-999,-999.0,-999.0,60,-99.99,,,-99.99,,2013-02-04 17:21:00,
2013-02-04 11:32:00,7.0,-2.0,30.03,North,-999,-999.0,-999.0,65,-99.99,,,-99.99,,2013-02-04 17:32:00,
2013-02-04 11:42:00,7.0,-2.0,30.03,North,-999,-999.0,-999.0,65,-99.99,,,-99.99,,2013-02-04 17:42:00,
2013-02-04 11:51:00,7.0,-4.0,30.02,North,-999,-999.0,-999.0,60,-99.99,,,-99.99,,2013-02-04 17:51:00,
2013-02-04 12:03:00,7.0,-4.0,30.02,North,-999,-999.0,-999.0,60,-99.99,,,-99.99,,2013-02-04 18:03:00,
2013-02-04 12:11:00,7.0,-2.0,30.01,North,-999,-999.0,-999.0,65,-99.99,,,-99.99,,2013-02-04 18:11:00,
2013-02-04 12:22:00,7.0,-2.0,30.01,North,-999,-999.0,-999.0,65,-99.99,,,-99.99,,2013-02-04 18:22:00,
2013-02-04 12:32:00,7.0,-2.0,30.00,North,-999,-999.0,-999.0,65,-99.99,,,-99.99,,2013-02-04 18:32:00,
2013-02-04 12:42:00,7.0,-2.0,30.00,North,-999,-999.0,-999.0,65,-99.99,,,-99.99,,2013-02-04 18:42:00,
2013-02-04 12:52:00,9.0,0.0,29.99,North,-999,-999.0,-999.0,66,-99.99,,,-99.99,,2013-02-04 18:52:00,
2013-02-04 13:02:00,9.0,0.0,29.99,North,-999,-999.0,-999.0,66,-99.99,,,-99.99,,2013-02-04 19:02:00,
2013-02-04 13:11:00,9.0,1.0,29.95,North,-999,-999.0,-999.0,71,-99.99,,,-99.99,,2013-02-04 19:11:00,
2013-02-04 13:22:00,9.0,1.0,29.95,North,-999,-999.0,-999.0,71,-99.99,,,-99.99,,2013-02-04 19:22:00,
2013-02-04 13:32:00,10.0,1.0,29.93,North,-999,-999.0,-999.0,66,-99.99,,,-99.99,,2013-02-04 19:32:00,
2013-02-04 13:42:00,10.0,1.0,29.93,North,-999,-999.0,-999.0,66,-99.99,,,-99.99,,2013-02-04 19:42:00,
2013-02-04 13:51:00,10.0,3.0,29.93,North,-999,-999.0,-999.0,72,-99.99,,,-99.99,,2013-02-04 19:51:00,
2013-02-04 14:02:00,10.0,3.0,29.93,North,-999,-999.0,-999.0,72,-99.99,,,-99.99,,2013-02-04 20:02:00,
2013-02-04 14:12:00,12.0,5.0,29.93,North,-999,-999.0,-999.0,72,-99.99,,,-99.99,,2013-02-04 20:12:00,
2013-02-04 14:22:00,12.0,5.0,29.93,North,-999,-999.0,-999.0,72,-99.99,,,-99.99,,2013-02-04 20:22:00,
2013-02-04 14:32:00,12.0,5.0,29.93,North,-999,-999.0,-999.0,72,-99.99,,,-99.99,,2013-02-04 20:32:00,
2013-02-04 14:42:00,12.0,5.0,29.93,North,-999,-999.0,-999.0,72,-99.99,,,-99.99,,2013-02-04 20:42:00,
2013-02-04 14:52:00,16.0,7.0,29.92,North,-999,-999.0,-999.0,67,-99.99,,,-99.99,,2013-02-04 20:52:00,
2013-02-04 15:02:00,16.0,7.0,29.92,North,-999,-999.0,-999.0,67,-99.99,,,-99.99,,2013-02-04 21:02:00,
2013-02-04 15:11:00,16.0,7.0,29.92,North,-999,-999.0,-999.0,67,-99.99,,,-99.99,,2013-02-04 21:11:00,
2013-02-04 15:22:00,16.0,7.0,29.92,North,-999,-999.0,-999.0,67,-99.99,,,-99.99,,2013-02-04 21:22:00,
2013-02-04 15:32:00,16.0,7.0,29.91,North,-999,-999.0,-999.0,67,-99.99,,,-99.99,,2013-02-04 21:32:00,
2013-02-04 15:42:00,16.0,7.0,29.91,North,-999,-999.0,-999.0,67,-99.99,,,-99.99,,2013-02-04 21:42:00,
2013-02-04 15:51:00,16.0,7.0,29.89,North,-999,-999.0,-999.0,67,-99.99,,,-99.99,,2013-02-04 21:51:00,
2013-02-04 16:02:00,16.0,7.0,29.89,North,-999,-999.0,-999.0,67,-99.99,,,-99.99,,2013-02-04 22:02:00,
2013-02-04 16:12:00,16.0,7.0,29.89,North,-999,-999.0,-999.0,67,-99.99,,,-99.99,,2013-02-04 22:12:00,
2013-02-04 16:21:00,16.0,7.0,29.88,North,-999,-999.0,-999.0,67,-99.99,,,-99.99,,2013-02-04 22:21:00,
2013-02-04 16:32:00,16.0,9.0,29.87,North,-999,-999.0,-999.0,72,-99.99,,,-99.99,,2013-02-04 22:32:00,
2013-02-04 16:42:00,16.0,9.0,29.87,North,-999,-999.0,-999.0,72,-99.99,,,-99.99,,2013-02-04 22:42:00,
2013-02-04 16:51:00,16.0,9.0,29.86,North,-999,-999.0,-999.0,72,-99.99,,,-99.99,,2013-02-04 22:51:00,
2013-02-04 17:01:00,16.0,9.0,29.86,North,-999,-999.0,-999.0,72,-99.99,,,-99.99,,2013-02-04 23:01:00,
2013-02-04 17:11:00,18.0,10.0,29.84,North,-999,-999.0,-999.0,72,-99.99,,,-99.99,,2013-02-04 23:11:00,
2013-02-04 17:21:00,18.0,10.0,29.84,North,-999,-999.0,-999.0,72,-99.99,,,-99.99,,2013-02-04 23:21:00,
2013-02-04 17:32:00,18.0,10.0,29.83,North,-999,-999.0,-999.0,72,-99.99,,,-99.99,,2013-02-04 23:32:00,
2013-02-04 17:42:00,18.0,10.0,29.83,North,-999,-999.0,-999.0,72,-99.99,,,-99.99,,2013-02-04 23:42:00,
2013-02-04 17:52:00,18.0,10.0,29.83,North,-999,-999.0,-999.0,72,-99.99,,,-99.99,,2013-02-04 23:52:00,
2013-02-04 18:01:00,18.0,10.0,29.83,North,-999,-999.0,-999.0,72,-99.99,,,-99.99,,2013-02-05 00:01:00,
2013-02-04 18:11:00,18.0,10.0,29.83,North,-999,-999.0,-999.0,72,-99.99,,,-99.99,,2013-02-05 00:11:00,
2013-02-04 18:32:00,18.0,12.0,29.82,North,-999,-999.0,-999.0,78,-99.99,,,-99.99,,2013-02-05 00:32:00,
2013-02-04 18:42:00,18.0,12.0,29.82,North,-999,-999.0,-999.0,78,-99.99,,,-99.99,,2013-02-05 00:42:00,
2013-02-04 18:51:00,19.0,12.0,29.82,North,-999,-999.0,-999.0,73,-99.99,,,-99.99,,2013-02-05 00:51:00,
2013-02-04 19:01:00,19.0,12.0,29.82,North,-999,-999.0,-999.0,73,-99.99,,,-99.99,,2013-02-05 01:01:00,
2013-02-04 19:11:00,19.0,14.0,29.81,North,-999,-999.0,-999.0,79,-99.99,,,-99.99,,2013-02-05 01:11:00,
2013-02-04 19:22:00,19.0,14.0,29.81,North,-999,-999.0,-999.0,79,-99.99,,,-99.99,,2013-02-05 01:22:00,
2013-02-04 19:32:00,19.0,16.0,29.80,North,-999,-999.0,-999.0,85,-99.99,,,-99.99,,2013-02-05 01:32:00,
2013-02-04 19:42:00,19.0,16.0,29.80,North,-999,-999.0,-999.0,85,-99.99,,,-99.99,,2013-02-05 01:42:00,
2013-02-04 19:52:00,21.0,18.0,29.80,North,-999,-999.0,-999.0,85,-99.99,,,-99.99,,2013-02-05 01:52:00,
2013-02-04 20:01:00,21.0,18.0,29.80,North,-999,-999.0,-999.0,85,-99.99,,,-99.99,,2013-02-05 02:01:00,
2013-02-04 20:11:00,21.0,16.0,29.79,North,-999,-999.0,-999.0,79,-99.99,,,-99.99,,2013-02-05 02:11:00,
2013-02-04 20:22:00,21.0,16.0,29.79,North,-999,-999.0,-999.0,79,-99.99,,,-99.99,,2013-02-05 02:22:00,
2013-02-04 20:32:00,21.0,16.0,29.79,North,-999,-999.0,-999.0,79,-99.99,,,-99.99,,2013-02-05 02:32:00,
2013-02-04 20:42:00,21.0,16.0,29.79,North,-999,-999.0,-999.0,79,-99.99,,,-99.99,,2013-02-05 02:42:00,
2013-02-04 20:52:00,21.0,16.0,29.75,North,-999,-999.0,-999.0,79,-99.99,,,-99.99,,2013-02-05 02:52:00,
2013-02-04 21:02:00,21.0,16.0,29.75,North,-999,-999.0,-999.0,79,-99.99,,,-99.99,,2013-02-05 03:02:00,
2013-02-04 21:11:00,23.0,18.0,29.73,North,-999,-999.0,-999.0,79,-99.99,,,-99.99,,2013-02-05 03:11:00,
2013-02-04 21:21:00,23.0,18.0,29.73,North,-999,-999.0,-999.0,79,-99.99,,,-99.99,,2013-02-05 03:21:00,
2013-02-04 21:32:00,23.0,18.0,29.73,North,-999,-999.0,-999.0,79,-99.99,,,-99.99,,2013-02-05 03:32:00,
2013-02-04 21:42:00,23.0,18.0,29.73,North,-999,-999.0,-999.0,79,-99.99,,,-99.99,,2013-02-05 03:42:00,
2013-02-04 21:51:00,25.0,18.0,29.73,North,-999,-999.0,-999.0,73,-99.99,,,-99.99,,2013-02-05 03:51:00,
2013-02-04 22:01:00,25.0,18.0,29.73,North,-999,-999.0,-999.0,73,-99.99,,,-99.99,,2013-02-05 04:01:00,
2013-02-04 22:11:00,25.0,18.0,29.71,North,-999,-999.0,-999.0,73,-99.99,,,-99.99,,2013-02-05 04:11:00,
2013-02-04 22:21:00,25.0,18.0,29.71,North,-999,-999.0,-999.0,73,-99.99,,,-99.99,,2013-02-05 04:21:00,
2013-02-04 22:32:00,25.0,18.0,29.69,North,-999,-999.0,-999.0,73,-99.99,,,-99.99,,2013-02-05 04:32:00,
2013-02-04 22:42:00,25.0,18.0,29.69,North,-999,-999.0,-999.0,73,-99.99,,,-99.99,,2013-02-05 04:42:00,
2013-02-04 22:52:00,25.0,18.0,29.68,North,-999,-999.0,-999.0,73,-99.99,,,-99.99,,2013-02-05 04:52:00,
2013-02-04 23:02:00,25.0,18.0,29.68,North,-999,-999.0,-999.0,73,-99.99,,,-99.99,,2013-02-05 05:02:00,
2013-02-04 23:11:00,25.0,19.0,29.66,North,-999,-999.0,-999.0,79,-99.99,,,-99.99,,2013-02-05 05:11:00,
2013-02-04 23:22:00,25.0,19.0,29.66,North,-999,-999.0,-999.0,79,-99.99,,,-99.99,,2013-02-05 05:22:00,
2013-02-04 23:32:00,27.0,21.0,29.67,North,-999,-999.0,-999.0,79,-99.99,,,-99.99,,2013-02-05 05:32:00,
2013-02-04 23:42:00,27.0,21.0,29.67,North,-999,-999.0,-999.0,79,-99.99,,,-99.99,,2013-02-05 05:42:00,
2013-02-04 23:52:00,27.0,21.0,29.67,North,-999,-999.0,-999.0,79,-99.99,,,-99.99,,2013-02-05 05:52:00,